Regional Weather Roundup
Issued by NWS Newport/Morehead, NC

Current Version | Previous Version | Graphics & Text | Print | Product List | Glossary Off
Versions: 1 2 3 4 5 6 7 8 9 10 11 12 13 14 15 16 17 18 19 20 21 22 23 24 25 26 27 28 29 30 31 32 33 34 35 36 37 38 39 40 41 42 43 44 45 46 47 48 49 50

000
ASUS42 KMHX 301925
RWRMHX
WEATHER ROUNDUP FOR EASTERN NORTH CAROLINA
NATIONAL WEATHER SERVICE NEWPORT/MOREHEAD CITY NC
300 PM EDT TUE AUG 30 2016

NOTE: "FAIR" INDICATES FEW OR NO CLOUDS BELOW 12,000 FEET
WITH NO SIGNIFICANT WEATHER AND/OR OBSTRUCTIONS TO VISIBILITY

NCZ015>017-031-032-045>047-102-103-302000-
NORTH COAST

CITY           SKY/WX    TMP DP  RH WIND       PRES   REMARKS
EDENTON        PTSUNNY   89  70  52 E9        30.04F
ELIZABETH CITY PTSUNNY   87  74  64 NE10      30.04F
KITTY HAWK     MOCLDY    85  79  83 NE7       30.01F
MANTEO         CLOUDY    83  77  81 NE13      30.03F

$$

NCZ045>047-081-094-103-104-302000-
CENTRAL COAST

CITY           SKY/WX    TMP DP  RH WIND       PRES   REMARKS
FRISCO         CLOUDY    86  77  74 NE12G18   29.99F

$$

NCZ095-097-098-100-101-302000-
SOUTHERN COAST

CITY           SKY/WX    TMP DP  RH WIND       PRES   REMARKS
BEAUFORT       PTSUNNY   87  75  67 N15G21    29.98F
CEDAR ISLAND   NOT AVBL
JACKSONVILLE   MOSUNNY   88  73  61 N8        29.99F
PINEY ISLAND   PTCLDY   N/A N/A N/A NE15      29.99F
WILMINGTON     MOSUNNY   88  75  65 NW6       30.00F


$$

NCZ011>013-027>030-043-044-078>080-089-090>093-098-302000-
COASTAL PLAIN

CITY           SKY/WX    TMP DP  RH WIND       PRES   REMARKS
AHOSKIE        PTSUNNY   87  69  55 NE8       30.04F
CLINTON        MOSUNNY   88  72  57 NE3       30.03F
ELIZABETHTOWN  PTSUNNY   88  71  57 N3        30.02F
GOLDSBORO      SUNNY     91  67  45 NE8       30.02F
GREENVILLE     MOSUNNY   90  72  55 NE9       30.04F
HAVELOCK       CLOUDY    83  76  79 N10       30.01F
KENANSVILLE    MOSUNNY   88  72  58 N7        30.03F
KINSTON        MOSUNNY   88  72  58 NE7       30.03F
NEW BERN       LGT RAIN  84  77  79 N8        30.02F
RICHLANDS      PTSUNNY   85  75  72 N5        30.02F
ROCKY MOUNT    SUNNY     93  63  36 VRB7      30.03F
WASHINGTON     MOSUNNY   86  75  69 NE7       30.02F
WHITEVILLE     PTSUNNY   87  73  62 N3        30.01F

$$

AMZ130-135-150-152-154-156-158-170-250-252-270-ANZ085-086-088-633-658-670-302000-
MARINE OBSERVATIONS

STATION/POSITION TIME  TEMP    WIND        PRES    WAVE   SWELL
                       AIR SEA DIR/SP/G            HT/PER HT/PER
                 (UTC) (F)     (DEG/KT/KT) (MB)    (FT/S) (FT/S)
CHESAPEAKE LIGHT NOT AVBL
64 E VA BEACH    1850   79 81   80/  4/  6 1017.1    5/12   5/12
DUCK             1900   80 80   40/ 12/ 13 1016.4
2 E DUCK         1811      79                N/A     5/11   2/11
OREGON INLET     1900   82 81   30/ 10/ 13 1016.3
13E OREGON INLT  1900      80                N/A     5/12   5/12
HATTERAS CG      1900   83 82   30/ 13/ 19 1015.1
DIAMOND BUOY     1850   83 85   60/ 14/ 17 1014.8    6/12   5/12
CAPE LOOKOUT     1900   85      10/ 13/ 17 1014.8
BEAUFORT LAB     1900   86 81   10/ 12/ 19 1014.7
30 SE NEW RVR IN 1908   84 84   30/ 12/ 16 1015.5
30 SE NEW RVR IN 1825      84                N/A     4/12   2/12
27 SE WRIGHTSVLE 1908   83 83  350/  8/ 12 1016.2
5 SE WRIGHTSVLE  1808   83 83   30/  6/ 10 1017.8
225 S CAPE HAT   1850   84 84  240/  8/ 10 1016.0    5/12   5/12
41 SE CHARLESTON 1850   81 85  360/ 10/ 12 1015.4    3/11   3/11

$$



USA.gov is the U.S. government's official web portal to all federal, state and local government web resources and services.